Date,TemperatureHighF,TemperatureAvgF,TemperatureLowF,DewpointHighF,DewpointAvgF,DewpointLowF,HumidityHigh,HumidityAvg,HumidityLow,PressureMaxIn,PressureMinIn,WindSpeedMaxMPH,WindSpeedAvgMPH,GustSpeedMaxMPH,PrecipitationSumIn
2013-2-1,72.9,50.2,0.0,23.1,16.9,11.0,43,29,14,29.88,29.83,6,1,9,0.00
2013-2-2,70.3,49.1,37.2,31.6,21.2,15.8,42,35,17,29.97,29.88,7,1,11,0.00
2013-2-3,67.3,48.6,0.0,31.4,22.4,14.2,43,36,20,29.94,29.83,6,1,11,0.00
2013-2-4,62.6,46.2,34.9,29.7,22.4,14.1,44,39,25,29.85,29.74,4,1,7,0.00
2013-2-5,65.1,50.5,42.4,27.9,24.3,20.1,42,37,20,29.83,29.74,8,2,15,0.00
2013-2-6,69.4,48.4,30.6,23.8,17.4,10.2,43,31,15,29.88,29.80,8,2,15,0.00
2013-2-7,64.4,47.4,0.0,32.7,18.3,11.2,43,33,16,29.83,29.65,9,2,20,0.08
2013-2-8,66.9,46.8,0.0,28.4,13.4,5.5,44,28,15,29.68,29.62,8,2,17,0.00
2013-2-9,68.2,49.0,31.8,18.7,11.2,3.6,40,23,15,29.77,29.65,7,2,14,0.00
2013-2-10,66.9,45.4,27.1,19.7,12.6,6.3,43,29,15,29.80,29.74,7,1,9,0.00
2013-2-11,74.8,51.0,32.2,21.1,13.1,1.6,40,24,13,29.88,29.74,7,2,14,0.00
2013-2-12,67.1,47.7,30.7,24.9,15.2,9.6,42,30,15,30.03,29.88,6,1,12,0.00
2013-2-13,72.0,49.0,0.0,22.6,15.8,9.5,43,29,14,30.00,29.88,7,1,15,0.00
2013-2-14,73.6,51.3,32.7,26.6,16.8,11.5,44,28,13,29.91,29.85,5,1,9,0.00
2013-2-15,76.5,53.0,33.1,27.9,16.8,10.3,44,27,13,29.97,29.88,6,1,10,0.00
2013-2-16,77.4,51.9,35.1,29.6,18.2,14.0,42,29,13,29.97,29.71,4,1,8,0.00
2013-2-17,72.3,50.2,32.2,25.8,15.6,10.0,43,28,14,29.83,29.65,6,1,11,0.00
2013-2-18,63.9,45.9,31.6,26.4,19.1,10.6,41,35,16,29.74,29.59,8,3,17,0.00
2013-2-19,54.5,43.1,0.0,27.0,17.4,10.5,42,35,26,29.62,29.38,6,2,15,0.28
2013-2-20,67.3,47.7,0.0,24.5,15.0,9.5,44,29,15,29.74,29.50,6,3,15,0.00
2013-2-21,71.1,49.9,32.0,22.8,14.4,6.3,41,26,14,29.91,29.68,8,3,17,0.00
2013-2-22,70.7,50.3,30.4,25.2,17.4,9.5,42,30,14,30.03,29.80,8,2,17,0.00
2013-2-23,71.1,54.1,41.0,25.6,17.6,4.4,42,26,14,30.03,29.85,7,3,14,0.00
2013-2-24,75.2,53.5,34.9,21.1,11.2,1.4,35,19,13,30.00,29.83,7,3,15,0.00
2013-2-25,76.5,50.3,31.1,26.0,15.2,9.5,42,28,13,30.00,29.85,8,1,13,0.00
2013-2-26,77.9,51.2,30.9,28.4,14.6,4.4,44,26,13,29.97,29.85,8,2,13,0.00
2013-2-27,75.0,51.2,0.0,25.5,16.4,8.6,41,28,13,30.09,29.91,6,1,10,0.00
2013-2-28,78.1,57.3,43.3,35.0,24.7,19.5,40,31,13,30.21,30.00,8,2,18,0.00